Year,Month,Day,Hour,Minute,Value (Times are PST for temperature in C)
2012,04,17,00,00,6.20
2012,04,17,00,01,6.20
2012,04,17,00,02,6.20
2012,04,17,00,03,6.20
2012,04,17,00,04,6.10
2012,04,17,00,05,6.10
2012,04,17,00,06,6.10
2012,04,17,00,07,6.10
2012,04,17,00,08,6.10
2012,04,17,00,09,6.10
2012,04,17,00,10,6.10
2012,04,17,00,11,6.10
2012,04,17,00,12,6.10
2012,04,17,00,13,6.10
2012,04,17,00,14,6.10
2012,04,17,00,15,6.20
2012,04,17,00,16,6.20
2012,04,17,00,17,6.20
2012,04,17,00,18,6.20
2012,04,17,00,19,6.20
2012,04,17,00,20,6.10
2012,04,17,00,21,6.10
2012,04,17,00,22,6.10
2012,04,17,00,23,6.10
2012,04,17,00,24,6.10
2012,04,17,00,25,6.10
2012,04,17,00,26,6.10
2012,04,17,00,27,6.10
2012,04,17,00,28,6.10
2012,04,17,00,29,6.10
2012,04,17,00,30,6.20
2012,04,17,00,31,6.20
2012,04,17,00,32,6.20
2012,04,17,00,33,6.20
2012,04,17,00,34,6.20
2012,04,17,00,35,6.20
2012,04,17,00,36,6.20
2012,04,17,00,37,6.20
2012,04,17,00,38,6.20
2012,04,17,00,39,6.10
2012,04,17,00,40,6.10
2012,04,17,00,41,6.10
2012,04,17,00,42,6.10
2012,04,17,00,43,6.10
2012,04,17,00,44,6.00
2012,04,17,00,45,6.00
2012,04,17,00,46,6.00
2012,04,17,00,47,6.00
2012,04,17,00,48,6.00
2012,04,17,00,49,6.00
2012,04,17,00,50,6.00
2012,04,17,00,51,6.00
2012,04,17,00,52,5.90
2012,04,17,00,53,5.90
2012,04,17,00,54,5.90
2012,04,17,00,55,5.90
2012,04,17,00,56,5.90
2012,04,17,00,57,5.80
2012,04,17,00,58,5.80
2012,04,17,00,59,5.80
2012,04,17,01,00,5.80
2012,04,17,01,01,5.70
2012,04,17,01,02,5.70
2012,04,17,01,03,5.60
2012,04,17,01,04,5.60
2012,04,17,01,05,5.50
2012,04,17,01,06,5.40
2012,04,17,01,07,5.40
2012,04,17,01,08,5.40
2012,04,17,01,09,5.30
2012,04,17,01,10,5.30
2012,04,17,01,11,5.30
2012,04,17,01,12,5.30
2012,04,17,01,13,5.20
2012,04,17,01,14,5.20
2012,04,17,01,15,5.20
2012,04,17,01,16,5.20
2012,04,17,01,17,5.10
2012,04,17,01,18,5.10
2012,04,17,01,19,5.10
2012,04,17,01,20,5.00
2012,04,17,01,21,5.00
2012,04,17,01,22,5.00
2012,04,17,01,23,4.90
2012,04,17,01,24,4.90
2012,04,17,01,25,4.90
2012,04,17,01,26,4.90
2012,04,17,01,27,4.90
2012,04,17,01,28,4.90
2012,04,17,01,29,4.90
2012,04,17,01,30,4.90
2012,04,17,01,31,4.80
2012,04,17,01,32,4.80
2012,04,17,01,33,4.80
2012,04,17,01,34,4.80
2012,04,17,01,35,4.80
2012,04,17,01,36,4.80
2012,04,17,01,37,4.80
2012,04,17,01,38,4.80
2012,04,17,01,39,4.80
2012,04,17,01,40,4.70
2012,04,17,01,41,4.70
2012,04,17,01,42,4.70
2012,04,17,01,43,4.70
2012,04,17,01,44,4.70
2012,04,17,01,45,4.70
2012,04,17,01,46,4.60
2012,04,17,01,47,4.60
2012,04,17,01,48,4.60
2012,04,17,01,49,4.50
2012,04,17,01,50,4.50
2012,04,17,01,51,4.50
2012,04,17,01,52,4.40
2012,04,17,01,53,4.40
2012,04,17,01,54,4.40
2012,04,17,01,55,4.30
2012,04,17,01,56,4.30
2012,04,17,01,57,4.30
2012,04,17,01,58,4.30
2012,04,17,01,59,4.20
2012,04,17,02,00,4.20
2012,04,17,02,01,4.20
2012,04,17,02,02,4.20
2012,04,17,02,03,4.20
2012,04,17,02,04,4.10
2012,04,17,02,05,4.10
2012,04,17,02,06,4.10
2012,04,17,02,07,4.00
2012,04,17,02,08,4.00
2012,04,17,02,09,4.00
2012,04,17,02,10,4.00
2012,04,17,02,11,3.90
2012,04,17,02,12,3.90
2012,04,17,02,13,3.90
2012,04,17,02,14,3.80
2012,04,17,02,15,3.80
2012,04,17,02,16,3.80
2012,04,17,02,17,3.80
2012,04,17,02,18,3.80
2012,04,17,02,19,3.70
2012,04,17,02,20,3.70
2012,04,17,02,21,3.70
2012,04,17,02,22,3.60
2012,04,17,02,23,3.60
2012,04,17,02,24,3.60
2012,04,17,02,25,3.60
2012,04,17,02,26,3.60
2012,04,17,02,27,3.50
2012,04,17,02,28,3.50
2012,04,17,02,29,3.50
2012,04,17,02,30,3.40
2012,04,17,02,31,3.40
2012,04,17,02,32,3.40
2012,04,17,02,33,3.40
2012,04,17,02,34,3.40
2012,04,17,02,35,3.30
2012,04,17,02,36,3.30
2012,04,17,02,37,3.30
2012,04,17,02,38,3.30
2012,04,17,02,39,3.30
2012,04,17,02,40,3.20
2012,04,17,02,41,3.20
2012,04,17,02,42,3.20
2012,04,17,02,43,3.20
2012,04,17,02,44,3.20
2012,04,17,02,45,3.20
2012,04,17,02,46,3.10
2012,04,17,02,47,3.10
2012,04,17,02,48,3.10
2012,04,17,02,49,3.10
2012,04,17,02,50,3.10
2012,04,17,02,51,3.00
2012,04,17,02,52,3.00
2012,04,17,02,53,3.00
2012,04,17,02,54,3.00
2012,04,17,02,55,2.90
2012,04,17,02,56,2.90
2012,04,17,02,57,2.90
2012,04,17,02,58,2.90
2012,04,17,02,59,2.90
2012,04,17,03,00,2.90
2012,04,17,03,01,2.80
2012,04,17,03,02,2.80
2012,04,17,03,03,2.80
2012,04,17,03,04,2.80
2012,04,17,03,05,2.80
2012,04,17,03,06,2.80
2012,04,17,03,07,2.80
2012,04,17,03,08,2.80
2012,04,17,03,09,2.80
2012,04,17,03,10,2.80
2012,04,17,03,11,2.80
2012,04,17,03,12,2.80
2012,04,17,03,13,2.80
2012,04,17,03,14,2.80
2012,04,17,03,15,2.80
2012,04,17,03,16,2.80
2012,04,17,03,17,2.80
2012,04,17,03,18,2.80
2012,04,17,03,19,2.70
2012,04,17,03,20,2.70
2012,04,17,03,21,2.70
2012,04,17,03,22,2.70
2012,04,17,03,23,2.70
2012,04,17,03,24,2.70
2012,04,17,03,25,2.70
2012,04,17,03,26,2.70
2012,04,17,03,27,2.70
2012,04,17,03,28,2.70
2012,04,17,03,29,2.70
2012,04,17,03,30,2.70
2012,04,17,03,31,2.70
2012,04,17,03,32,2.70
2012,04,17,03,33,2.70
2012,04,17,03,34,2.70
2012,04,17,03,35,2.60
2012,04,17,03,36,2.60
2012,04,17,03,37,2.60
2012,04,17,03,38,2.60
2012,04,17,03,39,2.60
2012,04,17,03,40,2.60
2012,04,17,03,41,2.60
2012,04,17,03,42,2.60
2012,04,17,03,43,2.60
2012,04,17,03,44,2.50
2012,04,17,03,45,2.50
2012,04,17,03,49,2.50
2012,04,17,03,50,2.50
2012,04,17,03,51,2.50
2012,04,17,03,52,2.50
2012,04,17,03,53,2.50
2012,04,17,03,54,2.50
2012,04,17,03,55,2.50
2012,04,17,03,56,2.50
2012,04,17,03,57,2.50
2012,04,17,03,58,2.50
2012,04,17,03,59,2.50
2012,04,17,04,00,2.50
2012,04,17,04,01,2.50
2012,04,17,04,02,2.50
2012,04,17,04,03,2.50
2012,04,17,04,04,2.50
2012,04,17,04,05,2.50
2012,04,17,04,06,2.50
2012,04,17,04,07,2.50
2012,04,17,04,08,2.50
2012,04,17,04,09,2.50
2012,04,17,04,10,2.50
2012,04,17,04,11,2.50
2012,04,17,04,12,2.50
2012,04,17,04,13,2.50
2012,04,17,04,14,2.50
2012,04,17,04,15,2.50
2012,04,17,04,16,2.50
2012,04,17,04,17,2.40
2012,04,17,04,18,2.40
2012,04,17,04,19,2.40
2012,04,17,04,20,2.40
2012,04,17,04,21,2.40
2012,04,17,04,22,2.50
2012,04,17,04,23,2.50
2012,04,17,04,24,2.50
2012,04,17,04,25,2.50
2012,04,17,04,26,2.50
2012,04,17,04,27,2.40
2012,04,17,04,28,2.40
2012,04,17,04,29,2.40
2012,04,17,04,30,2.40
2012,04,17,04,31,2.40
2012,04,17,04,32,2.40
2012,04,17,04,33,2.40
2012,04,17,04,34,2.40
2012,04,17,04,35,2.40
2012,04,17,04,36,2.40
2012,04,17,04,37,2.40
2012,04,17,04,38,2.40
2012,04,17,04,39,2.30
2012,04,17,04,40,2.30
2012,04,17,04,41,2.30
2012,04,17,04,42,2.30
2012,04,17,04,43,2.30
2012,04,17,04,44,2.30
2012,04,17,04,45,2.30
2012,04,17,04,46,2.30
2012,04,17,04,47,2.30
2012,04,17,04,48,2.30
2012,04,17,04,49,2.30
2012,04,17,04,50,2.30
2012,04,17,04,51,2.30
2012,04,17,04,52,2.30
2012,04,17,04,53,2.30
2012,04,17,04,54,2.30
2012,04,17,04,55,2.30
2012,04,17,04,56,2.30
2012,04,17,04,57,2.30
2012,04,17,04,58,2.30
2012,04,17,04,59,2.30
2012,04,17,05,00,2.30
2012,04,17,05,01,2.30
2012,04,17,05,02,2.20
2012,04,17,05,03,2.20
2012,04,17,05,04,2.20
2012,04,17,05,05,2.20
2012,04,17,05,06,2.20
2012,04,17,05,07,2.20
2012,04,17,05,08,2.20
2012,04,17,05,09,2.20
2012,04,17,05,10,2.10
2012,04,17,05,11,2.10
2012,04,17,05,12,2.10
2012,04,17,05,13,2.10
2012,04,17,05,14,2.00
2012,04,17,05,15,2.00
2012,04,17,05,16,2.00
2012,04,17,05,17,2.00
2012,04,17,05,18,2.00
2012,04,17,05,19,2.00
2012,04,17,05,20,2.00
2012,04,17,05,21,2.00
2012,04,17,05,22,2.00
2012,04,17,05,23,2.00
2012,04,17,05,24,1.90
2012,04,17,05,25,1.90
2012,04,17,05,26,1.90
2012,04,17,05,27,1.90
2012,04,17,05,28,1.90
2012,04,17,05,29,1.90
2012,04,17,05,30,1.90
2012,04,17,05,31,1.90
2012,04,17,05,32,1.90
2012,04,17,05,33,1.80
2012,04,17,05,34,1.80
2012,04,17,05,35,1.80
2012,04,17,05,36,1.80
2012,04,17,05,37,1.80
2012,04,17,05,38,1.80
2012,04,17,05,39,1.80
2012,04,17,05,40,1.80
2012,04,17,05,41,1.90
2012,04,17,05,42,1.90
2012,04,17,05,43,1.90
2012,04,17,05,44,1.90
2012,04,17,05,45,1.90
2012,04,17,05,46,1.90
2012,04,17,05,47,1.90
2012,04,17,05,48,1.90
2012,04,17,05,49,1.90
2012,04,17,05,50,1.80
2012,04,17,05,51,1.70
2012,04,17,05,52,1.70
2012,04,17,05,53,1.70
2012,04,17,05,54,1.60
2012,04,17,05,55,1.60
2012,04,17,05,56,1.60
2012,04,17,05,57,1.60
2012,04,17,05,58,1.60
2012,04,17,05,59,1.60
2012,04,17,06,00,1.60
2012,04,17,06,01,1.60
2012,04,17,06,02,1.60
2012,04,17,06,03,1.60
2012,04,17,06,04,1.60
2012,04,17,06,05,1.70
2012,04,17,06,06,1.70
2012,04,17,06,07,1.70
2012,04,17,06,08,1.70
2012,04,17,06,09,1.70
2012,04,17,06,10,1.70
2012,04,17,06,11,1.70
2012,04,17,06,12,1.70
2012,04,17,06,13,1.70
2012,04,17,06,14,1.70
2012,04,17,06,15,1.70
2012,04,17,06,16,1.70
2012,04,17,06,17,1.70
2012,04,17,06,18,1.70
2012,04,17,06,19,1.70
2012,04,17,06,20,1.60
2012,04,17,06,21,1.60
2012,04,17,06,22,1.60
2012,04,17,06,23,1.60
2012,04,17,06,24,1.60
2012,04,17,06,25,1.60
2012,04,17,06,26,1.60
2012,04,17,06,27,1.60
2012,04,17,06,28,1.60
2012,04,17,06,29,1.60
2012,04,17,06,30,1.60
2012,04,17,06,31,1.60
2012,04,17,06,32,1.60
2012,04,17,06,33,1.60
2012,04,17,06,34,1.60
2012,04,17,06,35,1.60
2012,04,17,06,36,1.60
2012,04,17,06,37,1.60
2012,04,17,06,38,1.60
2012,04,17,06,39,1.60
2012,04,17,06,40,1.60
2012,04,17,06,41,1.70
2012,04,17,06,42,1.70
2012,04,17,06,43,1.70
2012,04,17,06,44,1.70
2012,04,17,06,45,1.70
2012,04,17,06,46,1.70
2012,04,17,06,47,1.70
2012,04,17,06,48,1.70
2012,04,17,06,49,1.80
2012,04,17,06,50,1.80
2012,04,17,06,51,1.80
2012,04,17,06,52,1.80
2012,04,17,06,53,1.80
2012,04,17,06,54,1.80
2012,04,17,06,55,1.80
2012,04,17,06,56,1.80
2012,04,17,06,57,1.80
2012,04,17,06,58,1.80
2012,04,17,06,59,1.80
2012,04,17,07,00,1.80
2012,04,17,07,01,1.80
2012,04,17,07,02,1.90
2012,04,17,07,03,1.90
2012,04,17,07,04,1.90
2012,04,17,07,05,1.90
2012,04,17,07,06,2.00
2012,04,17,07,07,2.00
2012,04,17,07,08,2.00
2012,04,17,07,09,2.00
2012,04,17,07,10,2.10
2012,04,17,07,11,2.10
2012,04,17,07,12,2.10
2012,04,17,07,13,2.10
2012,04,17,07,14,2.10
2012,04,17,07,15,2.10
2012,04,17,07,16,2.10
2012,04,17,07,17,2.20
2012,04,17,07,18,2.20
2012,04,17,07,19,2.20
2012,04,17,07,20,2.20
2012,04,17,07,21,2.20
2012,04,17,07,22,2.20
2012,04,17,07,23,2.30
2012,04,17,07,24,2.30
2012,04,17,07,25,2.30
2012,04,17,07,26,2.30
2012,04,17,07,27,2.30
2012,04,17,07,28,2.30
2012,04,17,07,29,2.30
2012,04,17,07,30,2.30
2012,04,17,07,31,2.30
2012,04,17,07,32,2.40
2012,04,17,07,33,2.40
2012,04,17,07,34,2.40
2012,04,17,07,35,2.40
2012,04,17,07,36,2.40
2012,04,17,07,37,2.40
2012,04,17,07,38,2.50
2012,04,17,07,39,2.50
2012,04,17,07,40,2.50
2012,04,17,07,41,2.60
2012,04,17,07,42,2.60
2012,04,17,07,43,2.60
2012,04,17,07,44,2.60
2012,04,17,07,45,2.70
2012,04,17,07,46,2.70
2012,04,17,07,47,2.70
2012,04,17,07,48,2.70
2012,04,17,07,49,2.70
2012,04,17,07,50,2.80
2012,04,17,07,51,2.80
2012,04,17,07,52,2.80
2012,04,17,07,53,2.90
2012,04,17,07,54,2.90
2012,04,17,07,55,3.00
2012,04,17,07,56,3.00
2012,04,17,07,57,3.10
2012,04,17,07,58,3.10
2012,04,17,07,59,3.10
2012,04,17,08,00,3.20
2012,04,17,08,01,3.20
2012,04,17,08,02,3.20
2012,04,17,08,03,3.30
2012,04,17,08,04,3.30
2012,04,17,08,05,3.40
2012,04,17,08,06,3.40
2012,04,17,08,07,3.50
2012,04,17,08,08,3.50
2012,04,17,08,09,3.60
2012,04,17,08,10,3.60
2012,04,17,08,11,3.70
2012,04,17,08,12,3.70
2012,04,17,08,13,3.80
2012,04,17,08,14,3.80
2012,04,17,08,15,3.80
2012,04,17,08,16,3.90
2012,04,17,08,17,3.90
2012,04,17,08,18,3.90
2012,04,17,08,19,3.90
2012,04,17,08,20,4.00
2012,04,17,08,21,4.00
2012,04,17,08,22,4.10
2012,04,17,08,23,4.10
2012,04,17,08,24,4.10
2012,04,17,08,25,4.10
2012,04,17,08,26,4.20
2012,04,17,08,27,4.20
2012,04,17,08,28,4.30
2012,04,17,08,29,4.30
2012,04,17,08,30,4.30
2012,04,17,08,31,4.30
2012,04,17,08,32,4.40
2012,04,17,08,33,4.40
2012,04,17,08,34,4.50
2012,04,17,08,35,4.50
2012,04,17,08,36,4.50
2012,04,17,08,37,4.60
2012,04,17,08,38,4.60
2012,04,17,08,39,4.70
2012,04,17,08,40,4.70
2012,04,17,08,41,4.80
2012,04,17,08,42,4.80
2012,04,17,08,43,4.90
2012,04,17,08,44,4.90
2012,04,17,08,45,5.00
2012,04,17,08,46,5.10
2012,04,17,08,47,5.10
2012,04,17,08,48,5.10
2012,04,17,08,49,5.20
2012,04,17,08,50,5.20
2012,04,17,08,51,5.20
2012,04,17,08,52,5.20
2012,04,17,08,53,5.30
2012,04,17,08,54,5.30
2012,04,17,08,55,5.40
2012,04,17,08,56,5.40
2012,04,17,08,57,5.50
2012,04,17,08,58,5.50
2012,04,17,08,59,5.60
2012,04,17,09,00,5.60
2012,04,17,09,01,5.60
2012,04,17,09,02,5.70
2012,04,17,09,03,5.70
2012,04,17,09,04,5.80
2012,04,17,09,05,5.80
2012,04,17,09,06,5.80
2012,04,17,09,07,5.80
2012,04,17,09,08,5.90
2012,04,17,09,09,5.90
2012,04,17,09,10,5.90
2012,04,17,09,11,6.00
2012,04,17,09,12,6.00
2012,04,17,09,13,6.10
2012,04,17,09,14,6.20
2012,04,17,09,15,6.30
2012,04,17,09,16,6.30
2012,04,17,09,17,6.40
2012,04,17,09,18,6.50
2012,04,17,09,19,6.60
2012,04,17,09,20,6.60
2012,04,17,09,21,6.70
2012,04,17,09,22,6.80
2012,04,17,09,23,6.90
2012,04,17,09,24,6.90
2012,04,17,09,25,7.00
2012,04,17,09,26,7.10
2012,04,17,09,27,7.20
2012,04,17,09,28,7.20
2012,04,17,09,29,7.20
2012,04,17,09,30,7.20
2012,04,17,09,31,7.20
2012,04,17,09,32,7.30
2012,04,17,09,33,7.30
2012,04,17,09,34,7.40
2012,04,17,09,35,7.50
2012,04,17,09,36,7.60
2012,04,17,09,37,7.60
2012,04,17,09,38,7.70
2012,04,17,09,39,7.80
2012,04,17,09,40,7.80
2012,04,17,09,41,7.80
2012,04,17,09,42,7.80
2012,04,17,09,43,7.90
2012,04,17,09,44,7.90
2012,04,17,09,45,7.90
2012,04,17,09,46,7.90
2012,04,17,09,47,7.90
2012,04,17,09,48,7.90
2012,04,17,09,49,8.00
2012,04,17,09,50,8.00
2012,04,17,09,51,8.00
2012,04,17,09,52,8.00
2012,04,17,09,53,8.00
2012,04,17,09,54,8.00
2012,04,17,09,55,8.00
2012,04,17,09,56,8.00
2012,04,17,09,57,8.00
2012,04,17,09,58,8.00
2012,04,17,09,59,8.10
2012,04,17,10,00,8.10
2012,04,17,10,01,8.10
2012,04,17,10,02,8.10
2012,04,17,10,03,8.20
2012,04,17,10,04,8.20
2012,04,17,10,05,8.20
2012,04,17,10,06,8.30
2012,04,17,10,07,8.30
2012,04,17,10,08,8.20
2012,04,17,10,09,8.20
2012,04,17,10,10,8.20
2012,04,17,10,11,8.20
2012,04,17,10,12,8.20
2012,04,17,10,13,8.30
2012,04,17,10,14,8.20
2012,04,17,10,15,8.20
2012,04,17,10,16,8.20
2012,04,17,10,17,8.20
2012,04,17,10,18,8.30
2012,04,17,10,19,8.30
2012,04,17,10,20,8.30
2012,04,17,10,21,8.30
2012,04,17,10,22,8.30
2012,04,17,10,23,8.40
2012,04,17,10,24,8.40
2012,04,17,10,25,8.40
2012,04,17,10,26,8.40
2012,04,17,10,27,8.30
2012,04,17,10,28,8.30
2012,04,17,10,29,8.20
2012,04,17,10,30,8.20
2012,04,17,10,31,8.30
2012,04,17,10,32,8.30
2012,04,17,10,33,8.30
2012,04,17,10,34,8.30
2012,04,17,10,35,8.30
2012,04,17,10,36,8.30
2012,04,17,10,37,8.30
2012,04,17,10,38,8.30
2012,04,17,10,39,8.30
2012,04,17,10,40,8.30
2012,04,17,10,41,8.30
2012,04,17,10,42,8.30
2012,04,17,10,43,8.30
2012,04,17,10,44,8.30
2012,04,17,10,45,8.30
2012,04,17,10,46,8.30
2012,04,17,10,47,8.30
2012,04,17,10,48,8.30
2012,04,17,10,49,8.30
2012,04,17,10,50,8.30
2012,04,17,10,51,8.30
2012,04,17,10,52,8.30
2012,04,17,10,53,8.30
2012,04,17,10,54,8.30
2012,04,17,10,55,8.30
2012,04,17,10,56,8.30
2012,04,17,10,57,8.30
2012,04,17,10,58,8.20
2012,04,17,10,59,8.20
2012,04,17,11,00,8.20
2012,04,17,11,01,8.20
2012,04,17,11,02,8.10
2012,04,17,11,03,8.10
2012,04,17,11,04,8.10
2012,04,17,11,05,8.00
2012,04,17,11,06,8.00
2012,04,17,11,07,7.90
2012,04,17,11,08,7.90
2012,04,17,11,09,7.90
2012,04,17,11,10,7.90
2012,04,17,11,11,7.90
2012,04,17,11,12,7.90
2012,04,17,11,13,7.90
2012,04,17,11,14,7.90
2012,04,17,11,15,7.90
2012,04,17,11,16,7.90
2012,04,17,11,17,7.90
2012,04,17,11,18,7.90
2012,04,17,11,19,7.90
2012,04,17,11,20,7.90
2012,04,17,11,21,7.80
2012,04,17,11,22,7.80
2012,04,17,11,23,7.80
2012,04,17,11,24,7.80
2012,04,17,11,25,7.80
2012,04,17,11,26,7.80
2012,04,17,11,27,7.80
2012,04,17,11,28,7.80
2012,04,17,11,29,7.80
2012,04,17,11,30,7.90
2012,04,17,11,31,7.90
2012,04,17,11,32,7.90
2012,04,17,11,33,7.90
2012,04,17,11,34,7.90
2012,04,17,11,35,7.90
2012,04,17,11,36,7.90
2012,04,17,11,37,7.90
2012,04,17,11,38,7.90
2012,04,17,11,39,7.90
2012,04,17,11,40,7.90
2012,04,17,11,41,7.90
2012,04,17,11,42,7.90
2012,04,17,11,43,7.90
2012,04,17,11,44,8.00
2012,04,17,11,45,8.00
2012,04,17,11,46,8.00
2012,04,17,11,47,8.00
2012,04,17,11,48,8.00
2012,04,17,11,49,8.00
2012,04,17,11,50,8.00
2012,04,17,11,51,8.10
2012,04,17,11,52,8.10
2012,04,17,11,53,8.20
2012,04,17,11,54,8.20
2012,04,17,11,55,8.30
2012,04,17,11,56,8.30
2012,04,17,11,57,8.30
2012,04,17,11,58,8.30
2012,04,17,11,59,8.40
2012,04,17,12,00,8.40
2012,04,17,12,01,8.40
2012,04,17,12,02,8.40
2012,04,17,12,03,8.40
2012,04,17,12,04,8.40
2012,04,17,12,05,8.30
2012,04,17,12,06,8.30
2012,04,17,12,07,8.40
2012,04,17,12,08,8.40
2012,04,17,12,09,8.40
2012,04,17,12,10,8.30
2012,04,17,12,11,8.30
2012,04,17,12,12,8.20
2012,04,17,12,13,8.10
2012,04,17,12,14,8.10
2012,04,17,12,15,8.10
2012,04,17,12,16,8.10
2012,04,17,12,17,8.10
2012,04,17,12,18,8.10
2012,04,17,12,19,8.10
2012,04,17,12,20,8.00
2012,04,17,12,21,8.00
2012,04,17,12,22,8.00
2012,04,17,12,23,8.00
2012,04,17,12,24,8.00
2012,04,17,12,25,8.00
2012,04,17,12,26,8.00
2012,04,17,12,27,8.00
2012,04,17,12,28,8.00
2012,04,17,12,29,8.00
2012,04,17,12,30,8.00
2012,04,17,12,31,8.00
2012,04,17,12,32,8.00
2012,04,17,12,33,8.10
2012,04,17,12,34,8.10
2012,04,17,12,35,8.10
2012,04,17,12,36,8.10
2012,04,17,12,37,8.10
2012,04,17,12,38,8.10
2012,04,17,12,39,8.10
2012,04,17,12,40,8.10
2012,04,17,12,41,8.10
2012,04,17,12,42,8.10
2012,04,17,12,43,8.10
2012,04,17,12,44,8.10
2012,04,17,12,45,8.10
2012,04,17,12,46,8.10
2012,04,17,12,47,8.20
2012,04,17,12,48,8.20
2012,04,17,12,49,8.20
2012,04,17,12,50,8.20
2012,04,17,12,51,8.20
2012,04,17,12,52,8.30
2012,04,17,12,53,8.30
2012,04,17,12,54,8.30
2012,04,17,12,55,8.30
2012,04,17,12,56,8.20
2012,04,17,12,57,8.20
2012,04,17,12,58,8.20
2012,04,17,12,59,8.20
2012,04,17,13,00,8.20
2012,04,17,13,01,8.20
2012,04,17,13,02,8.20
2012,04,17,13,03,8.20
2012,04,17,13,04,8.20
2012,04,17,13,05,8.20
2012,04,17,13,06,8.20
2012,04,17,13,07,8.20
2012,04,17,13,08,8.20
2012,04,17,13,09,8.20
2012,04,17,13,10,8.30
2012,04,17,13,11,8.30
2012,04,17,13,12,8.30
2012,04,17,13,13,8.30
2012,04,17,13,14,8.30
2012,04,17,13,15,8.30
2012,04,17,13,16,8.30
2012,04,17,13,17,8.30
2012,04,17,13,18,8.30
2012,04,17,13,19,8.40
2012,04,17,13,20,8.40
2012,04,17,13,21,8.40
2012,04,17,13,22,8.40
2012,04,17,13,23,8.40
2012,04,17,13,24,8.40
2012,04,17,13,25,8.40
2012,04,17,13,26,8.40
2012,04,17,13,27,8.40
2012,04,17,13,28,8.40
2012,04,17,13,29,8.40
2012,04,17,13,30,8.40
2012,04,17,13,31,8.30
2012,04,17,13,32,8.30
2012,04,17,13,33,8.30
2012,04,17,13,34,8.30
2012,04,17,13,35,8.30
2012,04,17,13,36,8.40
2012,04,17,13,37,8.40
2012,04,17,13,38,8.50
2012,04,17,13,39,8.50
2012,04,17,13,40,8.50
2012,04,17,13,41,8.50
2012,04,17,13,42,8.50
2012,04,17,13,43,8.50
2012,04,17,13,44,8.50
2012,04,17,13,45,8.50
2012,04,17,13,46,8.50
2012,04,17,13,47,8.50
2012,04,17,13,48,8.50
2012,04,17,13,49,8.40
2012,04,17,13,50,8.40
2012,04,17,13,51,8.40
2012,04,17,13,52,8.30
2012,04,17,13,53,8.30
2012,04,17,13,54,8.30
2012,04,17,13,55,8.30
2012,04,17,13,56,8.30
2012,04,17,13,57,8.30
2012,04,17,13,58,8.30
2012,04,17,13,59,8.30
2012,04,17,14,00,8.30
2012,04,17,14,01,8.30
2012,04,17,14,02,8.30
2012,04,17,14,03,8.30
2012,04,17,14,04,8.30
2012,04,17,14,05,8.30
2012,04,17,14,06,8.30
2012,04,17,14,07,8.30
2012,04,17,14,08,8.30
2012,04,17,14,09,8.20
2012,04,17,14,10,8.20
2012,04,17,14,11,8.20
2012,04,17,14,12,8.20
2012,04,17,14,13,8.20
2012,04,17,14,14,8.20
2012,04,17,14,15,8.20
2012,04,17,14,16,8.20
2012,04,17,14,17,8.20
2012,04,17,14,18,8.20
2012,04,17,14,19,8.10
2012,04,17,14,20,8.00
2012,04,17,14,21,8.00
2012,04,17,14,22,8.00
2012,04,17,14,23,8.00
2012,04,17,14,24,7.90
2012,04,17,14,25,7.90
2012,04,17,14,26,7.90
2012,04,17,14,27,7.90
2012,04,17,14,28,7.90
2012,04,17,14,29,7.90
2012,04,17,14,30,7.80
2012,04,17,14,31,7.80
2012,04,17,14,32,7.80
2012,04,17,14,33,7.80
2012,04,17,14,34,7.80
2012,04,17,14,35,7.80
2012,04,17,14,36,7.80
2012,04,17,14,37,7.80
2012,04,17,14,38,7.80
2012,04,17,14,39,7.80
2012,04,17,14,40,7.80
2012,04,17,14,41,7.80
2012,04,17,14,42,7.80
2012,04,17,14,43,7.80
2012,04,17,14,44,7.80
2012,04,17,14,45,7.90
2012,04,17,14,46,7.90
2012,04,17,14,47,7.90
2012,04,17,14,48,7.90
2012,04,17,14,49,8.00
2012,04,17,14,50,8.00
2012,04,17,14,51,8.10
2012,04,17,14,52,8.10
2012,04,17,14,53,8.10
2012,04,17,14,54,8.20
2012,04,17,14,55,8.20
2012,04,17,14,56,8.20
2012,04,17,14,57,8.20
2012,04,17,14,58,8.20
2012,04,17,14,59,8.20
2012,04,17,15,00,8.10
2012,04,17,15,01,8.10
2012,04,17,15,02,8.10
2012,04,17,15,03,8.20
2012,04,17,15,04,8.20
2012,04,17,15,05,8.20
2012,04,17,15,06,8.10
2012,04,17,15,07,8.10
2012,04,17,15,08,8.00
2012,04,17,15,09,8.00
2012,04,17,15,10,7.90
2012,04,17,15,11,7.90
2012,04,17,15,12,7.80
2012,04,17,15,13,7.90
2012,04,17,15,14,7.90
2012,04,17,15,15,7.90
2012,04,17,15,16,7.90
2012,04,17,15,17,7.90
2012,04,17,15,18,7.90
2012,04,17,15,19,7.90
2012,04,17,15,20,7.90
2012,04,17,15,21,8.00
2012,04,17,15,22,8.00
2012,04,17,15,23,8.00
2012,04,17,15,24,8.00
2012,04,17,15,25,8.10
2012,04,17,15,26,8.10
2012,04,17,15,27,8.10
2012,04,17,15,28,8.10
2012,04,17,15,29,8.10
2012,04,17,15,30,8.00
2012,04,17,15,31,8.00
2012,04,17,15,32,8.00
2012,04,17,15,33,8.00
2012,04,17,15,34,8.10
2012,04,17,15,35,8.10
2012,04,17,15,36,8.10
2012,04,17,15,37,8.10
2012,04,17,15,38,8.10
2012,04,17,15,39,8.00
2012,04,17,15,40,8.00
2012,04,17,15,41,8.00
2012,04,17,15,42,8.00
2012,04,17,15,43,8.00
2012,04,17,15,44,8.00
2012,04,17,15,45,8.00
2012,04,17,15,46,8.00
2012,04,17,15,47,8.00
2012,04,17,15,48,8.00
2012,04,17,15,49,8.00
2012,04,17,15,50,8.00
2012,04,17,15,51,8.00
2012,04,17,15,52,8.00
2012,04,17,15,53,8.10
2012,04,17,15,54,8.00
2012,04,17,15,55,8.00
2012,04,17,15,56,8.00
2012,04,17,15,57,8.00
2012,04,17,15,58,8.00
2012,04,17,15,59,7.90
2012,04,17,16,00,7.90
2012,04,17,16,01,7.90
2012,04,17,16,02,7.80
2012,04,17,16,03,7.80
2012,04,17,16,04,7.70
2012,04,17,16,05,7.60
2012,04,17,16,06,7.50
2012,04,17,16,07,7.50
2012,04,17,16,08,7.40
2012,04,17,16,09,7.30
2012,04,17,16,10,7.30
2012,04,17,16,11,7.20
2012,04,17,16,12,7.20
2012,04,17,16,13,7.20
2012,04,17,16,14,7.20
2012,04,17,16,15,7.20
2012,04,17,16,16,7.20
2012,04,17,16,17,7.20
2012,04,17,16,18,7.20
2012,04,17,16,19,7.20
2012,04,17,16,20,7.20
2012,04,17,16,21,7.20
2012,04,17,16,22,7.20
2012,04,17,16,23,7.10
2012,04,17,16,24,7.10
2012,04,17,16,25,7.10
2012,04,17,16,26,7.10
2012,04,17,16,27,7.20
2012,04,17,16,28,7.20
2012,04,17,16,29,7.20
2012,04,17,16,30,7.20
2012,04,17,16,31,7.20
2012,04,17,16,32,7.20
2012,04,17,16,33,7.20
2012,04,17,16,34,7.20
2012,04,17,16,35,7.20
2012,04,17,16,36,7.20
2012,04,17,16,37,7.20
2012,04,17,16,38,7.20
2012,04,17,16,39,7.20
2012,04,17,16,40,7.20
2012,04,17,16,41,7.20
2012,04,17,16,42,7.20
2012,04,17,16,43,7.20
2012,04,17,16,44,7.20
2012,04,17,16,45,7.20
2012,04,17,16,46,7.20
2012,04,17,16,47,7.20
2012,04,17,16,48,7.20
2012,04,17,16,49,7.20
2012,04,17,16,50,7.20
2012,04,17,16,51,7.20
2012,04,17,16,52,7.20
2012,04,17,16,53,7.10
2012,04,17,16,54,7.10
2012,04,17,16,55,7.10
2012,04,17,16,56,7.10
2012,04,17,16,57,7.10
2012,04,17,16,58,7.20
2012,04,17,16,59,7.20
2012,04,17,17,00,7.20
2012,04,17,17,01,7.10
2012,04,17,17,02,7.10
2012,04,17,17,03,7.10
2012,04,17,17,04,7.10
2012,04,17,17,05,7.10
2012,04,17,17,06,7.10
2012,04,17,17,07,7.10
2012,04,17,17,08,7.10
2012,04,17,17,09,7.10
2012,04,17,17,10,7.00
2012,04,17,17,11,7.00
2012,04,17,17,12,7.00
2012,04,17,17,13,7.00
2012,04,17,17,14,7.00
2012,04,17,17,15,7.00
2012,04,17,17,16,7.10
2012,04,17,17,17,7.10
2012,04,17,17,18,7.10
2012,04,17,17,19,7.10
2012,04,17,17,20,7.10
2012,04,17,17,21,7.10
2012,04,17,17,22,7.20
2012,04,17,17,23,7.20
2012,04,17,17,24,7.20
2012,04,17,17,25,7.20
2012,04,17,17,26,7.20
2012,04,17,17,27,7.20
2012,04,17,17,28,7.20
2012,04,17,17,29,7.20
2012,04,17,17,30,7.20
2012,04,17,17,31,7.20
2012,04,17,17,32,7.30
2012,04,17,17,33,7.30
2012,04,17,17,34,7.30
2012,04,17,17,35,7.30
2012,04,17,17,36,7.30
2012,04,17,17,37,7.30
2012,04,17,17,38,7.30
2012,04,17,17,39,7.30
2012,04,17,17,40,7.30
2012,04,17,17,41,7.30
2012,04,17,17,42,7.20
2012,04,17,17,43,7.20
2012,04,17,17,44,7.20
2012,04,17,17,45,7.20
2012,04,17,17,46,7.20
2012,04,17,17,47,7.20
2012,04,17,17,48,7.20
2012,04,17,17,49,7.20
2012,04,17,17,50,7.10
2012,04,17,17,51,7.10
2012,04,17,17,52,7.20
2012,04,17,17,53,7.20
2012,04,17,17,54,7.20
2012,04,17,17,55,7.20
2012,04,17,17,56,7.20
2012,04,17,17,57,7.20
2012,04,17,17,58,7.20
2012,04,17,17,59,7.20
2012,04,17,18,00,7.20
2012,04,17,18,01,7.20
2012,04,17,18,02,7.20
2012,04,17,18,03,7.20
2012,04,17,18,04,7.20
2012,04,17,18,05,7.20
2012,04,17,18,06,7.20
2012,04,17,18,07,7.30
2012,04,17,18,08,7.30
2012,04,17,18,09,7.30